This is the latest recevied weather packets stored in our database for station/object FW0727. If no packets are shown the sender has not sent any weather packets the latest 10 day(s).
| Time | Temp. | Humidity | Pressure | Rain* | Wind** | Luminosity | Snow |
|---|---|---|---|---|---|---|---|
| 1777734910 | 6.67° C | 54% | 1021.5 hPa | - | - | - | - |
| 1777734558 | 6.67° C | 55% | 1021.7 hPa | - | - | - | - |
| 1777734206 | 6.67° C | 55% | 1021.9 hPa | - | - | - | - |
| 1777733854 | 6.67° C | 55% | 1022.1 hPa | - | - | - | - |
| 1777733501 | 6.67° C | 54% | 1022.2 hPa | - | - | - | - |
| 1777733150 | 6.67° C | 55% | 1022.3 hPa | - | - | - | - |
| 1777732469 | 6.67° C | 54% | 1022.5 hPa | - | - | - | - |
| 1777732115 | 7.22° C | 54% | 1022.4 hPa | - | - | - | - |
| 1777731758 | 7.22° C | 53% | 1022.3 hPa | - | - | - | - |
| 1777731407 | 7.78° C | 53% | 1022.2 hPa | - | - | - | - |
| 1777731054 | 7.78° C | 53% | 1022.1 hPa | - | - | - | - |
| 1777730710 | 8.33° C | 52% | 1022 hPa | - | - | - | - |
| 1777730366 | 8.33° C | 50% | 1021.8 hPa | - | - | - | - |
| 1777730014 | 8.89° C | 48% | 1021.7 hPa | - | - | - | - |
| 1777729661 | 8.89° C | 48% | 1021.7 hPa | - | - | - | - |
| 1777729317 | 9.44° C | 48% | 1021.6 hPa | - | - | - | - |
| 1777728963 | 9.44° C | 47% | 1021.5 hPa | - | - | - | - |
| 1777728611 | 9.44° C | 46% | 1021.5 hPa | - | - | - | - |
| 1777728259 | 10° C | 47% | 1021.4 hPa | - | - | - | - |
| 1777727907 | 9.44° C | 46% | 1021.4 hPa | - | - | - | - |
| 1777727555 | 9.44° C | 47% | 1021.4 hPa | - | - | - | - |
| 1777727203 | 9.44° C | 47% | 1021.4 hPa | - | - | - | - |
| 1777726852 | 9.44° C | 48% | 1021.5 hPa | - | - | - | - |
| 1777726498 | 8.89° C | 48% | 1021.5 hPa | - | - | - | - |
| 1777726154 | 8.89° C | 47% | 1021.5 hPa | - | - | - | - |
* Rain since midnight (hover to see other rain measurements)
** Current wind speed in m/s (hover to see current wind gust speed)